Regional Weather Roundup
Issued by NWS

Home | Current Version | Previous Version | Graphics & Text | Print | Product List | Glossary On
Versions: 1 2 3 4 5 6 7 8 9 10 11 12 13 14 15 16 17 18 19 20 21 22 23 24 25 26 27 28 29 30 31 32 33 34 35 36 37 38 39 40 41 42 43 44 45 46 47 48 49 50
000
ASUS43 KBIS 171002
RWRND

NORTH DAKOTA REGIONAL WEATHER ROUNDUP
NATIONAL WEATHER SERVICE BISMARCK ND
400 AM CST TUE JAN 17 2017

NOTE: "FAIR" INDICATES FEW OR NO CLOUDS BELOW 12,000 FEET WITH NO
SIGNIFICANT WEATHER AND/OR OBSTRUCTIONS TO VISIBILITY.


NDZ001>003-009>011-017-171100-
NORTHWEST NORTH DAKOTA

CITY           SKY/WX    TMP DP  RH WIND       PRES   REMARKS
WILLISTON      FAIR       6   3  87 SW8       29.91F WCI  -7
MINOT          FAIR      17  12  80 SW12      29.92F WCI   4
$$

NDZ018>021-031>035-040>046-171100-
SOUTHWEST NORTH DAKOTA

CITY           SKY/WX    TMP DP  RH WIND       PRES   REMARKS
BISMARCK       FAIR       7   2  80 CALM      30.01F
DICKINSON      FAIR      16   7  67 SW8       29.92F WCI   5
GARRISON         N/A      3   0  87 SE3       29.97R
HETTINGER ARPT CLOUDY     6   2  83 NW3       29.98F
$$

NDZ004>008-012>016-024-026-027-054-171100-
NORTHEAST NORTH DAKOTA

CITY           SKY/WX    TMP DP  RH WIND       PRES   REMARKS
GRAND FORKS    CLOUDY     1  -4  79 SW3       29.98F
GRND FRKS AFB  CLOUDY     3  -1  83 SW5       29.97F WCI  -6
DEVILS LAKE    FAIR       8   5  87 SW8       29.96S WCI  -4
$$

NDZ022-023-025-028>030-036>039-047>053-171100-
SOUTHEAST NORTH DAKOTA

CITY           SKY/WX    TMP DP  RH WIND       PRES   REMARKS
FARGO          CLOUDY     5   1  83 S3        30.01S
JAMESTOWN      FAIR       8   6  92 W5        29.97S WCI   0
$$




USA.gov is the U.S. government's official web portal to all federal, state and local government web resources and services.